DELTA 1 DEB, 27578

Orbit data source: Space-Track

DELTA 1 DEB, 27578 is space debris in SSO originally from a launch on Thu, 12 Jun 1975 UTC launched from the Air Force Western Test Range (AFWTR). Debris objects in space refer to the collection of defunct objects orbiting the Earth. Examples of debris include non-operational satellites, rocket bodies, and fragments generated from explosions, collisions, or faulty payload assembly.

Loading next visibility...
Identifier
27578, 1975-052LF
Orbit
SSO
Country
Flag of USUS
Related business
Manufacturer
Unknown
Mission
Spacecraft
Bus & Motor
Unknown
Mass
Unknown
Launch date (UTC)
1975-06-12 (50 years ago)
Launch vehicle
Unknown
Launch site
Air Force Western Test Range (AFWTR)
Object type
Payload
Rocket body
Debris
Shape & HBR
Unknown shape, 0.1 m
Radar Cross Section
Small (<0.1 m²)

Expand to show TLE details & history
Last TLE update: 2 days ago

TLE from 2 days ago
0 DELTA 1 DEB
1 27578U 75052LF  25287.00418117  .00001279  00000-0  13536-2 0  9993
2 27578  99.6047 191.0461 0040230  96.3958 282.8681 13.76136271225075
Epoch: 2025-10-14T00:06Z
TLE epoch observation values (Epoch: 2025-10-14T00:06:01.253Z)
Latitude
18.53683°
Longitude
163.50617°
Altitude
973.451 km
Speed
7.37 km/s
True Right ascension
12h 31m 14s
True Declination
18° 26' 11"
Sunlit
Object was in daylight at epoch
Visualization orbit readout
Latitude
Unknown
Longitude
Unknown
Altitude
Unknown
Speed
Unknown
Apparent Right ascension
Unknown
Apparent Declination
Unknown
Sunlit
N/A
Visualization observer readout
Local Sidereal Time
11:53:25
Azimuth
Unknown
Elevation
Unknown
Doppler factor
Unknown
Orbital elements
Apogee altitude
1,004.466 km
Perigee altitude
945.303 km
Semi-major axis
7,353.021 km
Eccentricity
0.00402
Inclination
99.6047°
RAAN
191.0461°
Arg. of periapsis
96.3958°
True anomaly
282.41818°
Mean anomaly
282.8681°
Eccentric anomaly
282.64319°
Mean motion
3.44227 °/min
Orbital period
104.58 mins
BSTAR
0.0013536
Loading maneuver chart data...
Computing Atmospheric mass density...

Documentation

Showing up to 5 results
|